Location: Niverville
(49.6028°N, 97.0419°W)
Time: 18:04:42
(UTC-06:00)

Amateur Radio Satellites - All Passes

Search period start: 21 November 2014 17:34
Search period end: 22 November 2014 17:34
Location: Niverville, 49.6028°N, 97.0419°W

Satellite Date Start Highest point End Downlink Frequencies (MHz)
Time Altitude Azimuth
PRISM 21 Nov 17:37:59 17:40:44 17° 90° (E) 17:43:28 437.425
HO-68 21 Nov 17:41:14 17:44:11 13° 38° (NE) 17:47:08 435.675
O/OREOS (USA 219) 21 Nov 17:44:46 17:48:31 27° 255° (WSW) 17:52:15 437.305
MOZHAYETS 4 21 Nov 17:49:39 17:54:21 85° 285° (WNW) 17:59:01
STRAND 1 21 Nov 17:52:15 17:53:05 10° 84° (E) 17:53:54 437.568
MaSat-1 21 Nov 17:53:29 17:55:52 22° 309° (NW) 17:58:06 437.345
VERMONT LUNAR 21 Nov 17:54:45 17:57:00 16° 166° (SSE) 17:59:16 437.305
CUTE-I 21 Nov 17:59:45 18:05:07 74° 256° (WSW) 18:10:31 437.470
GONETS M04 21 Nov 18:11:23 18:18:10 24° 55° (NE) 18:24:53
RS-15 21 Nov 18:14:22 18:25:20 89° 309° (NW) 18:36:25 29.354- 29.394
JAS-2 21 Nov 18:28:17 18:34:24 26° 273° (W) 18:40:45 435.910
Cubesat XI-IV 21 Nov 18:58:12 19:02:40 26° 267° (W) 19:07:08 437.490
PHONESAT 2.4 21 Nov 19:01:25 19:04:09 20° 174° (S) 19:06:53 2401.200-2431.200
CUTE 1.7 & AOD 2 21 Nov 19:07:11 19:09:35 15° 59° (ENE) 19:11:59 437.475
PRISM 21 Nov 19:12:29 19:16:41 59° 289° (WNW) 19:20:51 437.425
CUBESAT XI-V 21 Nov 19:17:01 19:21:42 62° 101° (E) 19:26:19 437.345
HO-68 21 Nov 19:23:27 19:30:10 45° 60° (ENE) 19:36:54 435.675
STRAND 1 21 Nov 19:28:06 19:33:14 70° 103° (ESE) 19:38:19 437.568
MOZHAYETS 4 21 Nov 19:28:31 19:30:53 14° 304° (NW) 19:33:14
DOVE 4 21 Nov 19:28:59 19:31:36 15° 59° (ENE) 19:34:09 437.250
Oscar 11 21 Nov 19:29:54 19:30:11 10° 54° (NE) 19:30:29 145.826/435.025
VERMONT LUNAR 21 Nov 19:32:06 19:34:47 20° 183° (S) 19:37:28 437.305
SHINDAISAT 21 Nov 19:38:52 19:40:48 55° 49° (NE) 19:42:41 437.305
DX 1 21 Nov 19:43:18 19:45:36 14° 56° (NE) 19:47:54 434.975-435.025
CUTE-I 21 Nov 19:44:13 19:46:08 12° 275° (W) 19:48:03 437.470
SEEDS 21 Nov 19:45:01 19:48:36 28° 65° (ENE) 19:52:13 437.485
GOMX 1 21 Nov 19:47:00 19:51:03 28° 65° (ENE) 19:54:53 467.674
BRITE-PL 21 Nov 19:50:15 19:54:56 39° 68° (ENE) 19:59:18 437.365/2234.400
AIST 1 21 Nov 20:01:02 20:04:54 31° 90° (E) 20:08:48
CANX-2 21 Nov 20:05:33 20:09:39 53° 71° (ENE) 20:13:48 2200.000
GONETS M04 21 Nov 20:07:36 20:16:32 83° 80° (E) 20:25:21
ZACube-1 21 Nov 20:08:39 20:09:44 11° 56° (NE) 20:10:49 437.345
AAUSAT CUBESAT 2 21 Nov 20:11:23 20:15:14 38° 68° (ENE) 20:19:07 437.432
AISAT 21 Nov 20:16:11 20:17:17 11° 53° (NE) 20:18:23 437.250
COMPASS 1 21 Nov 20:23:01 20:27:05 56° 72° (ENE) 20:31:12 437.405
PCSat 21 Nov 20:26:14 20:30:40 27° 110° (ESE) 20:35:08 145.827
HUMSAT D 21 Nov 20:28:21 20:29:17 11° 56° (NE) 20:30:14 437.325/437.525
RS-15 21 Nov 20:28:53 20:39:08 43° 338° (NNW) 20:49:38 29.354- 29.394
CINEMA 3 21 Nov 20:38:55 20:43:01 38° 68° (ENE) 20:46:59 145.822/145.860
PHONESAT 2.4 21 Nov 20:39:43 20:42:14 17° 191° (SSW) 20:44:46 2401.200-2431.200
CUTE 1.7 & AOD 2 21 Nov 20:40:47 20:44:59 74° 257° (WSW) 20:49:15 437.475
DELFI C3 21 Nov 20:41:01 20:44:44 35° 68° (ENE) 20:48:29 145.870
FUNcube-1 21 Nov 20:42:35 20:45:49 22° 63° (ENE) 20:49:00 145.935
CUBEBUG 2 21 Nov 20:45:35 20:49:19 29° 66° (ENE) 20:52:58 437.445
UKube-1 21 Nov 20:46:21 20:50:32 47° 69° (ENE) 20:54:44 .
50 SAT 21 Nov 20:48:00 20:50:02 14° 58° (ENE) 20:52:04 437.505
CUBESAT XI-V 21 Nov 20:55:19 20:58:44 20° 300° (WNW) 21:02:07 437.345
UWE-3 21 Nov 20:55:50 20:59:38 32° 67° (ENE) 21:03:23 435.000/436.395/437.385
Oscar 11 21 Nov 21:01:16 21:05:32 67° 73° (ENE) 21:09:50 145.826/435.025
DOVE 4 21 Nov 21:04:12 21:08:54 81° 257° (WSW) 21:13:21 437.250
STRAND 1 21 Nov 21:08:11 21:11:56 21° 303° (WNW) 21:15:40 437.568
ESTCUBE 1 21 Nov 21:09:25 21:11:46 14° 56° (NE) 21:14:08 437.505/2401.250
VERMONT LUNAR 21 Nov 21:10:59 21:12:29 12° 200° (SSW) 21:13:59 437.305
HO-68 21 Nov 21:10:59 21:17:51 47° 261° (W) 21:24:47 435.675
DX 1 21 Nov 21:16:50 21:21:14 87° 255° (WSW) 21:25:40 434.975-435.025
SEEDS 21 Nov 21:20:34 21:24:22 34° 264° (W) 21:28:13 437.485
GOMX 1 21 Nov 21:24:26 21:29:03 42° 262° (W) 21:33:25 467.674
VELOX 1 21 Nov 21:25:43 21:29:55 40° 67° (ENE) 21:34:07 145.980
BRITE-PL 21 Nov 21:28:59 21:33:31 31° 265° (W) 21:37:46 437.365/2234.400
BEESAT 3 21 Nov 21:36:55 21:40:40 35° 119° (ESE) 21:44:29 437.485
AIST 1 21 Nov 21:38:39 21:42:33 31° 289° (WNW) 21:46:31
ZACube-1 21 Nov 21:41:11 21:45:26 78° 74° (ENE) 21:49:37 437.345
CANX-2 21 Nov 21:43:03 21:45:57 18° 270° (W) 21:48:51 2200.000
AAUSAT CUBESAT 2 21 Nov 21:47:41 21:51:04 24° 267° (W) 21:54:29 437.432
BEESAT 2 21 Nov 21:48:15 21:52:08 41° 121° (ESE) 21:56:05 435.950
AISAT 21 Nov 21:48:38 21:53:06 67° 72° (ENE) 21:57:34 437.250
TIGRISAT 21 Nov 21:54:28 21:55:54 11° 87° (E) 21:57:21 435.000
HUMSAT D 21 Nov 22:00:16 22:04:24 77° 74° (ENE) 22:08:33 437.325/437.525
COMPASS 1 21 Nov 22:00:29 22:03:12 17° 270° (W) 22:05:56 437.405
AIST 2 21 Nov 22:01:48 22:05:32 30° 118° (ESE) 22:09:19 435.215
UNISAT 6 21 Nov 22:04:29 22:07:01 15° 89° (E) 22:09:34 437.425
GONETS M04 21 Nov 22:05:32 22:12:20 26° 282° (WNW) 22:19:07
PCSat 21 Nov 22:08:21 22:13:43 62° 310° (NW) 22:19:08 145.827
POLYITAN 1 21 Nov 22:09:02 22:10:13 11° 87° (E) 22:11:22 437.675
QB50P2 21 Nov 22:12:35 22:14:17 12° 87° (E) 22:15:58 145.880/145.840
CINEMA 3 21 Nov 22:16:38 22:20:21 26° 266° (W) 22:23:58 145.822/145.860
DELFI C3 21 Nov 22:16:46 22:20:09 25° 266° (W) 22:23:34 145.870
FUNcube-1 21 Nov 22:17:52 22:21:56 46° 261° (W) 22:25:59 145.935
CUBEBUG 1 21 Nov 22:19:34 22:23:53 51° 70° (ENE) 22:28:13 437.445
50 SAT 21 Nov 22:20:47 22:24:50 77° 257° (WSW) 22:28:54 437.505
DUCHIFAT 1 21 Nov 22:21:14 22:23:36 15° 89° (E) 22:25:58 145.980
CUBEBUG 2 21 Nov 22:22:07 22:26:00 32° 264° (W) 22:29:49 437.445
UKube-1 21 Nov 22:23:35 22:26:57 22° 267° (W) 22:30:20 .
SPROUT 21 Nov 22:28:25 22:31:20 18° 60° (ENE) 22:34:15 437.525
ANTELSAT 21 Nov 22:31:46 22:35:30 27° 94° (E) 22:39:17 437.575/2403.000
UWE-3 21 Nov 22:32:29 22:36:13 29° 265° (W) 22:39:55 435.000/436.395/437.385
TISAT 1 21 Nov 22:32:58 22:36:15 22° 62° (ENE) 22:39:33 437.305
NANOSAT C BR1 21 Nov 22:39:08 22:42:26 22° 93° (E) 22:45:43 145.865
Oscar 11 21 Nov 22:39:43 22:42:12 15° 271° (W) 22:44:41 145.826/435.025
ESTCUBE 1 21 Nov 22:43:25 22:47:59 88° 75° (ENE) 22:52:35 437.505/2401.250
RS-15 21 Nov 22:44:45 22:54:50 39° 12° (NNE) 23:05:13 29.354- 29.394
DOVE 4 21 Nov 22:46:38 22:47:20 10° 274° (W) 22:48:02 437.250
QB50P1 21 Nov 22:48:09 22:51:46 27° 94° (E) 22:55:20 145.935-145.965
DX 1 21 Nov 22:56:59 22:58:10 11° 273° (W) 22:59:21 434.975-435.025
AUBIESAT-1 21 Nov 22:59:58 23:02:51 19° 52° (NE) 23:05:55 437.475
SWISSCUBE 21 Nov 23:00:43 23:01:54 11° 51° (NE) 23:03:05 437.505
M-CUBED/EXP-1 PRIME 21 Nov 23:01:37 23:04:40 20° 53° (NE) 23:07:54 437.505
VELOX 1 21 Nov 23:02:52 23:06:38 26° 266° (W) 23:10:26 145.980
POPSAT HIP 1 21 Nov 23:12:00 23:16:05 45° 99° (E) 23:20:08 437.405
BEESAT 3 21 Nov 23:15:02 23:18:54 37° 320° (NW) 23:22:50 437.485
ZACube-1 21 Nov 23:20:36 23:22:22 12° 272° (W) 23:24:07 437.345
BUGSAT 1 21 Nov 23:23:25 23:27:27 49° 100° (E) 23:31:25 437.445
BEESAT 2 21 Nov 23:26:43 23:30:31 33° 321° (NW) 23:34:23 435.950
AISAT 21 Nov 23:27:25 23:30:13 16° 270° (W) 23:33:01 437.250
TIGRISAT 21 Nov 23:28:55 23:33:18 89° 285° (WNW) 23:37:44 435.000
BEESAT 21 Nov 23:30:32 23:33:40 18° 57° (ENE) 23:36:50 436.000
HUMSAT D 21 Nov 23:39:08 23:40:47 12° 272° (W) 23:42:26 437.325/437.525
UNISAT 6 21 Nov 23:39:56 23:44:18 70° 287° (WNW) 23:48:44 437.425
AIST 2 21 Nov 23:39:59 23:44:04 43° 318° (NW) 23:48:13 435.215
POLYITAN 1 21 Nov 23:42:33 23:46:49 87° 285° (WNW) 23:51:03 437.675
QB50P2 21 Nov 23:46:32 23:50:48 80° 286° (WNW) 23:55:01 145.880/145.840
PCSat 21 Nov 23:54:21 23:58:15 20° 333° (NNW) 00:02:09 145.827
DUCHIFAT 1 21 Nov 23:55:45 23:59:57 66° 288° (WNW) 00:04:07 145.980
CUBEBUG 1 21 Nov 23:57:14 00:00:34 20° 268° (W) 00:03:55 437.445
CUSAT 1 21 Nov 23:59:58 00:03:34 38° 75° (ENE) 00:08:17 437.405
SPROUT 22 Nov 00:02:43 00:07:01 62° 259° (WSW) 00:11:19 437.525
DANDE 22 Nov 00:05:23 00:08:48 35° 75° (ENE) 00:13:14 436.750
TISAT 1 22 Nov 00:07:42 00:11:50 47° 260° (W) 00:16:00 437.305
ANTELSAT 22 Nov 00:08:22 00:12:25 38° 292° (WNW) 00:16:32 437.575/2403.000
NANOSAT C BR1 22 Nov 00:14:31 00:18:32 43° 291° (WNW) 00:22:32 145.865
MaSat-1 22 Nov 00:20:51 00:21:12 10° 44° (NE) 00:21:33 437.345
ITUPSAT 1 22 Nov 00:21:30 00:26:02 43° 67° (ENE) 00:30:37 437.325
ESTCUBE 1 22 Nov 00:23:40 00:25:32 12° 273° (W) 00:27:25 437.505/2401.250
QB50P1 22 Nov 00:23:53 00:27:45 35° 293° (WNW) 00:31:35 145.935-145.965
AUBIESAT-1 22 Nov 00:33:23 00:37:21 66° 253° (WSW) 00:41:45 437.475
SWISSCUBE 22 Nov 00:34:06 00:38:49 60° 71° (ENE) 00:43:35 437.505
M-CUBED/EXP-1 PRIME 22 Nov 00:35:23 00:39:18 58° 254° (WSW) 00:43:39 437.505
STARS 22 Nov 00:42:19 00:44:21 13° 55° (NE) 00:46:23 437.465
POPSAT HIP 1 22 Nov 00:48:29 00:51:45 22° 298° (WNW) 00:55:01 437.405
BEESAT 3 22 Nov 00:56:16 00:58:18 13° 342° (NNW) 01:00:20 437.485
RS-15 22 Nov 00:58:23 01:09:29 69° 43° (NE) 01:21:02 29.354- 29.394
BUGSAT 1 22 Nov 00:59:38 01:02:39 20° 299° (WNW) 01:05:38 437.445
Oscar 19 22 Nov 01:03:53 01:07:46 21° 91° (E) 01:11:37 437.125/150
BEESAT 22 Nov 01:06:10 01:10:58 78° 256° (WSW) 01:15:48 436.000
TIGRISAT 22 Nov 01:07:24 01:09:27 13° 303° (WNW) 01:11:30 435.000
BEESAT 2 22 Nov 01:08:11 01:10:03 13° 344° (NNW) 01:11:56 435.950
KKS-1 22 Nov 01:10:56 01:14:51 31° 65° (ENE) 01:18:45 437.445
UNISAT 6 22 Nov 01:19:23 01:20:20 11° 306° (NW) 01:21:17 437.425
POLYITAN 1 22 Nov 01:20:21 01:22:07 12° 304° (NW) 01:23:54 437.675
AIST 2 22 Nov 01:21:21 01:23:47 15° 340° (NNW) 01:26:14 435.215
QB50P2 22 Nov 01:24:35 01:26:01 12° 305° (NW) 01:27:27 145.880/145.840
YUBILEINY 22 Nov 01:32:01 01:37:29 19° 73° (ENE) 01:42:56 435.215
PCSat 22 Nov 01:41:43 01:43:54 12° 359° (N) 01:46:05 145.827
CUSAT 1 22 Nov 01:43:27 01:46:40 23° 265° (W) 01:50:39 437.405
ITAMSAT 1 22 Nov 01:46:45 01:50:35 20° 90° (E) 01:54:23 435.822/435.867
DANDE 22 Nov 01:49:10 01:52:16 23° 264° (W) 01:56:04 436.750
ISS 22 Nov 01:49:27 01:52:21 29° 146° (SE) 01:55:16 145.825
Gurwin Techsat 1B 22 Nov 01:52:52 01:55:42 14° 86° (E) 01:58:31 435.225
MaSat-1 22 Nov 01:53:55 01:56:05 36° 244° (WSW) 01:58:16 437.345
ITUPSAT 1 22 Nov 02:00:00 02:04:06 27° 266° (W) 02:08:14 437.325
SWISSCUBE 22 Nov 02:13:36 02:17:06 20° 269° (W) 02:20:37 437.505
STARS 22 Nov 02:15:45 02:20:10 86° 74° (ENE) 02:24:37 437.465
BEESAT 3 22 Nov 02:37:35 02:38:21 10° 7° (N) 02:39:08 437.485
Oscar 19 22 Nov 02:42:26 02:47:32 63° 289° (WNW) 02:52:38 437.125/150
KKS-1 22 Nov 02:47:21 02:51:26 35° 263° (W) 02:55:32 437.445
BEESAT 22 Nov 02:48:28 02:49:39 11° 275° (W) 02:50:49 436.000
BEESAT 2 22 Nov 02:49:08 02:50:12 11° 8° (N) 02:51:15 435.950
AIST 2 22 Nov 03:03:08 03:04:15 11° 5° (N) 03:05:21 435.215
RS-15 22 Nov 03:11:08 03:21:28 46° 248° (WSW) 03:32:15 29.354- 29.394
MOZHAYETS 4 22 Nov 03:20:14 03:23:42 22° 61° (ENE) 03:27:12
YUBILEINY 22 Nov 03:23:59 03:32:46 76° 95° (E) 03:41:32 435.215
ITAMSAT 1 22 Nov 03:25:24 03:30:33 65° 289° (WNW) 03:35:40 435.822/435.867
ISS 22 Nov 03:25:30 03:28:48 80° 345° (NNW) 03:32:07 145.825
PCSat 22 Nov 03:25:45 03:29:35 19° 26° (NNE) 03:33:24 145.827
Gurwin Techsat 1B 22 Nov 03:31:05 03:36:27 88° 105° (ESE) 03:41:46 435.225
AO-7 22 Nov 03:33:56 03:40:30 25° 90° (E) 03:47:01 29.400- 29.500
HORYU 2 22 Nov 03:48:29 03:52:57 65° 102° (ESE) 03:57:25 437.375
JAS-2 22 Nov 03:50:36 03:52:10 11° 75° (ENE) 03:53:43 435.910
STARS 22 Nov 03:55:33 03:57:18 12° 273° (W) 03:59:03 437.465
BEESAT 3 22 Nov 04:14:56 04:18:10 21° 30° (NNE) 04:21:22 437.485
Oscar 19 22 Nov 04:23:57 04:25:55 12° 309° (NW) 04:27:54 437.125/150
BEESAT 2 22 Nov 04:26:37 04:30:01 23° 32° (NNE) 04:33:23 435.950
PRISM 22 Nov 04:33:03 04:36:24 23° 62° (ENE) 04:39:46 437.425
AIST 2 22 Nov 04:41:17 04:44:31 20° 29° (NNE) 04:47:44 435.215
CUBESAT XI-V 22 Nov 04:49:44 04:52:34 16° 57° (ENE) 04:55:23 437.345
SO-50 22 Nov 04:53:01 04:57:01 31° 117° (ESE) 05:01:07 436.795
MOZHAYETS 4 22 Nov 04:56:05 05:00:35 56° 260° (W) 05:05:09
ISS 22 Nov 05:02:22 05:05:39 59° 5° (N) 05:08:56 145.825
ITAMSAT 1 22 Nov 05:06:54 05:09:06 13° 309° (NW) 05:11:18 435.822/435.867
PCSat 22 Nov 05:08:46 05:14:09 58° 49° (NE) 05:19:30 145.827
STRAND 1 22 Nov 05:10:30 05:14:44 26° 60° (ENE) 05:18:57 437.568
Gurwin Techsat 1B 22 Nov 05:12:16 05:15:44 18° 305° (NW) 05:19:12 435.225
YUBILEINY 22 Nov 05:22:58 05:30:30 31° 299° (WNW) 05:38:04 435.215
AO-7 22 Nov 05:25:53 05:34:18 87° 291° (WNW) 05:42:41 29.400- 29.500
HORYU 2 22 Nov 05:26:08 05:29:12 18° 301° (WNW) 05:32:16 437.375
Cubesat XI-IV 22 Nov 05:31:19 05:34:18 15° 87° (E) 05:37:15 437.490
JAS-2 22 Nov 05:31:48 05:39:08 55° 98° (E) 05:45:39 435.910
BEESAT 3 22 Nov 05:52:44 05:56:58 90° 235° (SW) 06:01:09 437.485
BEESAT 2 22 Nov 06:04:33 06:08:48 78° 233° (SW) 06:12:59 435.950
AIST 1 22 Nov 06:04:36 06:07:00 14° 62° (ENE) 06:09:24
PRISM 22 Nov 06:07:43 06:11:44 43° 261° (W) 06:15:48 437.425
CUTE-I 22 Nov 06:12:47 06:17:33 32° 95° (E) 06:22:15 437.470
AIST 2 22 Nov 06:19:29 06:23:50 81° 50° (NE) 06:28:07 435.215
O/OREOS (USA 219) 22 Nov 06:22:46 06:26:01 20° 102° (ESE) 06:29:16 437.305
CUBESAT XI-V 22 Nov 06:24:39 06:29:23 85° 256° (WSW) 06:34:10 437.345
SO-50 22 Nov 06:32:59 06:37:25 47° 318° (NW) 06:42:00 436.795
ISS 22 Nov 06:39:05 06:42:22 62° 204° (SSW) 06:45:39 145.825
STRAND 1 22 Nov 06:48:35 06:53:38 54° 259° (W) 06:58:42 437.568
PCSat 22 Nov 06:52:41 06:57:16 28° 249° (WSW) 07:01:49 145.827
Cubesat XI-IV 22 Nov 07:09:46 07:15:09 90° 283° (WNW) 07:20:29 437.490
JAS-2 22 Nov 07:17:07 07:23:55 39° 300° (WNW) 07:30:06 435.910
AO-7 22 Nov 07:19:29 07:26:08 28° 314° (NW) 07:32:47 29.400- 29.500
GONETS M04 22 Nov 07:20:51 07:26:45 20° 74° (ENE) 07:32:38
BEESAT 3 22 Nov 07:32:40 07:34:34 13° 250° (WSW) 07:36:27 437.485
AIST 1 22 Nov 07:40:51 07:45:17 76° 262° (W) 07:49:39
BEESAT 2 22 Nov 07:45:14 07:46:21 11° 251° (WSW) 07:47:28 435.950
CUTE-I 22 Nov 07:52:43 07:57:45 44° 294° (WNW) 08:02:45 437.470
AIST 2 22 Nov 07:59:23 08:01:54 15° 249° (WSW) 08:04:23 435.215
O/OREOS (USA 219) 22 Nov 08:00:37 08:05:02 56° 301° (WNW) 08:09:28 437.305
CUBESAT XI-V 22 Nov 08:05:53 08:07:35 12° 275° (W) 08:09:17 437.345
SO-50 22 Nov 08:15:59 08:19:06 17° 341° (NNW) 08:22:15 436.795
ISS 22 Nov 08:16:40 08:18:31 14° 222° (SW) 08:20:22 145.825
CUTE 1.7 & AOD 2 22 Nov 08:23:17 08:25:44 15° 89° (E) 08:28:11 437.475
HO-68 22 Nov 08:33:47 08:39:54 29° 93° (E) 08:45:57 435.675
Cubesat XI-IV 22 Nov 08:51:06 08:54:33 18° 306° (NW) 08:57:59 437.490
TIGRISAT 22 Nov 08:57:19 09:00:14 18° 60° (ENE) 09:03:09 435.000
DOVE 4 22 Nov 09:00:01 09:02:50 17° 91° (E) 09:05:39 437.250
SEEDS 22 Nov 09:00:51 09:04:36 29° 95° (E) 09:08:21 437.485
DX 1 22 Nov 09:03:09 09:04:48 12° 87° (E) 09:06:26 434.975-435.025
JAS-2 22 Nov 09:04:42 09:06:50 11° 323° (NW) 09:08:55 435.910
POLYITAN 1 22 Nov 09:06:11 09:08:56 17° 59° (ENE) 09:11:41 437.675
UNISAT 6 22 Nov 09:08:01 09:11:22 23° 63° (ENE) 09:14:44 437.425
QB50P2 22 Nov 09:09:46 09:12:41 18° 60° (ENE) 09:15:35 145.880/145.840
GONETS M04 22 Nov 09:13:21 09:22:09 81° 97° (E) 09:31:03
AO-7 22 Nov 09:15:03 09:16:07 10° 339° (NNW) 09:17:10 29.400- 29.500
DUCHIFAT 1 22 Nov 09:18:16 09:21:28 21° 62° (ENE) 09:24:41 145.980
GOMX 1 22 Nov 09:21:51 09:25:44 36° 97° (E) 09:29:35 467.674
CANX-2 22 Nov 09:22:35 09:26:50 60° 101° (E) 09:31:05 2200.000
AAUSAT CUBESAT 2 22 Nov 09:26:10 09:30:10 40° 98° (E) 09:34:09 437.432
ZACube-1 22 Nov 09:28:15 09:29:10 11° 86° (E) 09:30:05 437.345
BRITE-PL 22 Nov 09:28:54 09:33:04 58° 101° (E) 09:37:09 437.365/2234.400
ANTELSAT 22 Nov 09:35:27 09:39:27 40° 68° (ENE) 09:43:27 437.575/2403.000
NANOSAT C BR1 22 Nov 09:36:19 09:40:02 30° 66° (ENE) 09:43:46 145.865
COMPASS 1 22 Nov 09:38:22 09:42:35 60° 101° (E) 09:46:47 437.405
O/OREOS (USA 219) 22 Nov 09:43:52 09:45:29 12° 323° (NW) 09:47:07 437.305
QB50P1 22 Nov 09:45:23 09:49:18 36° 67° (ENE) 09:53:13 145.935-145.965
DELFI C3 22 Nov 09:52:43 09:56:31 34° 96° (E) 10:00:18 145.870
CUTE 1.7 & AOD 2 22 Nov 09:57:53 10:02:08 67° 287° (WNW) 10:06:23 437.475
SO-50 22 Nov 09:59:05 10:01:32 14° 6° (N) 10:04:00 436.795
50 SAT 22 Nov 09:59:42 10:01:04 11° 87° (E) 10:02:26 437.505
FUNcube-1 22 Nov 10:02:28 10:05:52 23° 93° (E) 10:09:17 145.935
UKube-1 22 Nov 10:06:00 10:10:13 46° 100° (E) 10:14:23 .
CINEMA 3 22 Nov 10:06:18 10:10:22 50° 100° (E) 10:14:30 145.822/145.860
CUBEBUG 2 22 Nov 10:08:35 10:12:27 35° 97° (E) 10:16:21 437.445
POPSAT HIP 1 22 Nov 10:09:15 10:13:27 62° 72° (ENE) 10:17:41 437.405
UWE-3 22 Nov 10:17:37 10:21:32 38° 97° (E) 10:25:30 435.000/436.395/437.385
BUGSAT 1 22 Nov 10:17:45 10:21:58 64° 72° (ENE) 10:26:11 437.445
Oscar 11 22 Nov 10:20:27 10:24:49 76° 103° (ESE) 10:29:10 145.826/435.025
HO-68 22 Nov 10:21:02 10:28:10 68° 293° (WNW) 10:35:15 435.675
TIGRISAT 22 Nov 10:32:24 10:36:37 58° 259° (W) 10:40:50 435.000
ESTCUBE 1 22 Nov 10:33:35 10:36:02 14° 88° (E) 10:38:28 437.505/2401.250
SEEDS 22 Nov 10:36:39 10:40:28 33° 293° (WNW) 10:44:16 437.485
DOVE 4 22 Nov 10:36:56 10:40:58 51° 289° (WNW) 10:45:01 437.250
DX 1 22 Nov 10:37:17 10:41:41 85° 285° (WNW) 10:46:01 434.975-435.025
POLYITAN 1 22 Nov 10:40:12 10:44:27 65° 258° (WSW) 10:48:43 437.675
UNISAT 6 22 Nov 10:43:52 10:47:58 44° 261° (W) 10:52:04 437.425
QB50P2 22 Nov 10:44:00 10:48:13 60° 259° (WSW) 10:52:27 145.880/145.840
VELOX 1 22 Nov 10:48:41 10:52:57 43° 99° (E) 10:57:10 145.980
DUCHIFAT 1 22 Nov 10:52:55 10:57:04 49° 260° (W) 11:01:14 145.980
CANX-2 22 Nov 10:59:28 11:02:24 18° 299° (WNW) 11:05:19 2200.000
GOMX 1 22 Nov 11:00:22 11:03:46 25° 296° (WNW) 11:07:10 467.674
ZACube-1 22 Nov 11:01:59 11:06:11 89° 284° (WNW) 11:10:27 437.345
AAUSAT CUBESAT 2 22 Nov 11:02:15 11:05:41 25° 296° (WNW) 11:09:07 437.432
BRITE-PL 22 Nov 11:08:29 11:11:12 17° 300° (WNW) 11:13:53 437.365/2234.400
NANOSAT C BR1 22 Nov 11:12:03 11:15:54 32° 264° (W) 11:19:45 145.865
AISAT 22 Nov 11:12:14 11:16:42 75° 103° (ESE) 11:21:06 437.250
GONETS M04 22 Nov 11:12:43 11:20:05 29° 301° (WNW) 11:27:31
ANTELSAT 22 Nov 11:12:57 11:16:26 24° 267° (W) 11:19:56 437.575/2403.000
COMPASS 1 22 Nov 11:15:04 11:17:56 18° 299° (WNW) 11:20:47 437.405
HUMSAT D 22 Nov 11:16:25 11:20:35 82° 104° (ESE) 11:24:46 437.325/437.525
QB50P1 22 Nov 11:21:40 11:25:17 27° 266° (W) 11:28:55 145.935-145.965
DELFI C3 22 Nov 11:28:14 11:31:45 27° 295° (WNW) 11:35:15 145.870
50 SAT 22 Nov 11:32:54 11:36:57 79° 286° (WNW) 11:41:01 437.505
YUBILEINY 22 Nov 11:33:53 11:37:40 13° 42° (NE) 11:41:25 435.215
SHINDAISAT 22 Nov 11:35:19 11:36:57 26° 124° (ESE) 11:38:36 437.305
FUNcube-1 22 Nov 11:38:28 11:42:23 40° 291° (WNW) 11:46:21 145.935
SO-50 22 Nov 11:39:41 11:43:42 26° 30° (NNE) 11:47:46 436.795
CUBEBUG 1 22 Nov 11:40:44 11:45:05 56° 101° (E) 11:49:22 437.445
UKube-1 22 Nov 11:42:43 11:46:09 23° 298° (WNW) 11:49:33 .
CINEMA 3 22 Nov 11:44:18 11:47:19 20° 298° (WNW) 11:50:22 145.822/145.860
CUBEBUG 2 22 Nov 11:45:33 11:49:05 27° 295° (WNW) 11:52:40 437.445
SPROUT 22 Nov 11:46:18 11:49:11 17° 90° (E) 11:52:02 437.525
POPSAT HIP 1 22 Nov 11:47:08 11:49:47 16° 270° (W) 11:52:27 437.405
TISAT 1 22 Nov 11:49:12 11:52:22 20° 92° (E) 11:55:30 437.305
UWE-3 22 Nov 11:54:31 11:57:58 25° 295° (WNW) 12:01:27 435.000/436.395/437.385
BUGSAT 1 22 Nov 11:55:20 11:57:54 16° 270° (W) 12:00:28 437.445
Oscar 11 22 Nov 11:57:55 12:00:28 16° 302° (WNW) 12:03:01 145.826/435.025
ESTCUBE 1 22 Nov 12:08:55 12:13:29 77° 287° (WNW) 12:18:01 437.505/2401.250
HO-68 22 Nov 12:09:59 12:14:41 19° 315° (NW) 12:19:22 435.675
DX 1 22 Nov 12:15:17 12:17:15 13° 305° (NW) 12:19:12 434.975-435.025
Oscar 19 22 Nov 12:24:46 12:29:38 46° 67° (ENE) 12:34:31 437.125/150
VELOX 1 22 Nov 12:25:44 12:29:21 25° 298° (WNW) 12:32:56 145.980
SWISSCUBE 22 Nov 12:32:41 12:34:10 11° 85° (E) 12:35:38 437.505
ZACube-1 22 Nov 12:40:14 12:41:58 12° 303° (WNW) 12:43:42 437.345
AO-7 22 Nov 12:49:29 12:54:18 17° 35° (NE) 12:59:07 29.400- 29.500
AISAT 22 Nov 12:50:06 12:52:48 16° 302° (WNW) 12:55:31 437.250
HUMSAT D 22 Nov 12:53:50 12:55:51 13° 302° (WNW) 12:57:51 437.325/437.525
BEESAT 22 Nov 13:03:01 13:06:35 20° 91° (E) 13:10:08 436.000
SHINDAISAT 22 Nov 13:07:24 13:07:45 10° 322° (NW) 13:08:06 437.305
ITAMSAT 1 22 Nov 13:08:38 13:13:38 48° 67° (ENE) 13:18:38 435.822/435.867
50 SAT 22 Nov 13:10:43 13:11:36 11° 304° (NW) 13:12:29 437.505
HORYU 2 22 Nov 13:17:05 13:19:39 15° 57° (ENE) 13:22:14 437.375
Gurwin Techsat 1B 22 Nov 13:17:31 13:22:17 35° 64° (ENE) 13:27:05 435.225
CUBEBUG 1 22 Nov 13:17:55 13:21:06 20° 300° (WNW) 13:24:15 437.445
CUSAT 1 22 Nov 13:19:21 13:21:29 20° 95° (E) 13:23:31 437.405
SO-50 22 Nov 13:19:58 13:24:50 85° 231° (SW) 13:29:45 436.795
SPROUT 22 Nov 13:21:26 13:25:39 57° 289° (WNW) 13:29:50 437.525
TISAT 1 22 Nov 13:24:24 13:28:28 47° 290° (WNW) 13:32:30 437.305
DANDE 22 Nov 13:27:21 13:29:36 21° 96° (E) 13:31:42 436.750
YUBILEINY 22 Nov 13:28:52 13:37:16 48° 70° (ENE) 13:45:35 435.215
AUBIESAT-1 22 Nov 13:46:25 13:51:15 56° 106° (ESE) 13:56:03 437.475
ESTCUBE 1 22 Nov 13:47:44 13:49:36 12° 306° (NW) 13:51:28 437.505/2401.250
M-CUBED/EXP-1 PRIME 22 Nov 13:48:44 13:53:37 63° 107° (ESE) 13:58:30 437.505
ITUPSAT 1 22 Nov 13:55:26 14:00:12 57° 101° (E) 14:04:56 437.325
STARS 22 Nov 14:03:41 14:05:19 12° 87° (E) 14:06:57 437.465
Oscar 19 22 Nov 14:04:48 14:09:10 28° 266° (W) 14:13:35 437.125/150
JAS-2 22 Nov 14:07:29 14:10:53 14° 40° (NE) 14:14:17 435.910
SWISSCUBE 22 Nov 14:07:59 14:12:50 80° 104° (ESE) 14:17:38 437.505
KKS-1 22 Nov 14:34:05 14:38:07 33° 96° (E) 14:42:06 437.445
AO-7 22 Nov 14:37:22 14:45:15 51° 59° (ENE) 14:53:11 29.400- 29.500
BEESAT 22 Nov 14:40:05 14:44:49 58° 290° (WNW) 14:49:31 436.000
O/OREOS (USA 219) 22 Nov 14:48:38 14:51:17 15° 42° (NE) 14:53:56 437.305
ITAMSAT 1 22 Nov 14:48:52 14:53:20 28° 266° (W) 14:57:50 435.822/435.867
HORYU 2 22 Nov 14:51:20 14:55:46 80° 256° (WSW) 15:00:15 437.375
Gurwin Techsat 1B 22 Nov 14:57:13 15:02:12 40° 263° (W) 15:07:13 435.225
SO-50 22 Nov 15:02:00 15:04:43 15° 250° (WSW) 15:07:27 436.795
CUSAT 1 22 Nov 15:03:22 15:04:40 13° 293° (WNW) 15:05:57 437.405
DANDE 22 Nov 15:11:48 15:13:08 13° 292° (WNW) 15:14:25 436.750
AUBIESAT-1 22 Nov 15:21:55 15:25:56 26° 304° (NW) 15:29:59 437.475
M-CUBED/EXP-1 PRIME 22 Nov 15:24:25 15:28:17 24° 305° (NW) 15:32:12 437.505
YUBILEINY 22 Nov 15:25:55 15:34:06 47° 273° (W) 15:42:14 435.215
RS-15 22 Nov 15:31:23 15:38:56 22° 100° (E) 15:46:27 29.354- 29.394
ITUPSAT 1 22 Nov 15:34:01 15:37:45 23° 300° (WNW) 15:41:28 437.325
STARS 22 Nov 15:38:02 15:42:27 87° 286° (WNW) 15:46:51 437.465
JAS-2 22 Nov 15:46:52 15:53:59 44° 62° (ENE) 16:01:17 435.910
SWISSCUBE 22 Nov 15:47:02 15:50:07 17° 303° (WNW) 15:53:12 437.505
CUTE-I 22 Nov 16:01:58 16:05:02 16° 53° (NE) 16:08:05 437.470
KKS-1 22 Nov 16:10:48 16:14:45 32° 295° (WNW) 16:18:40 437.445
BEESAT 22 Nov 16:20:49 16:21:42 11° 309° (NW) 16:22:35 436.000
O/OREOS (USA 219) 22 Nov 16:26:57 16:31:27 82° 62° (ENE) 16:35:56 437.305
AO-7 22 Nov 16:30:13 16:38:07 47° 260° (W) 16:46:07 29.400- 29.500
MOZHAYETS 4 22 Nov 16:47:17 16:51:14 27° 93° (E) 16:55:09
PHONESAT 2.4 22 Nov 16:53:03 16:53:41 10° 156° (SSE) 16:54:20 2401.200-2431.200
Cubesat XI-IV 22 Nov 16:56:56 17:01:52 38° 64° (ENE) 17:06:47 437.490
MaSat-1 22 Nov 17:01:16 17:04:12 60° 302° (WNW) 17:06:53 437.345
STARS 22 Nov 17:16:15 17:18:17 13° 304° (NW) 17:20:19 437.465
VERMONT LUNAR 22 Nov 17:18:02 17:20:09 15° 164° (SSE) 17:22:15 437.305
GONETS M04 22 Nov 17:22:58 17:27:29 15° 44° (NE) 17:31:59
HO-68 22 Nov 17:26:17 17:27:43 11° 34° (NE) 17:29:09 435.675
